[Date Prev][Date Next][Thread Prev][Thread Next] - [Date Index][Thread Index][Author Index]

2 Line ISS Keps 8-14



ISS
1 25544U 98067A   05225.90367042  .00010752  00000-0  86122-4 0  1366
2 25544 051.6464 325.4102 0000992 252.7274 214.1582 15.71671375384768
----
Via the sarex mailing list at AMSAT.ORG courtesy of AMSAT-NA.
To unsubscribe, send "unsubscribe sarex" to Majordomo@amsat.org



AMSAT Top AMSAT Home